Location: Newark
(45.8667°N, 9.7333°E)
Time: 14:56:40
(UTC+00:00)

A-11 Canister half - Pass Details

Date: 29 January 2020
Orbit: 1517 x 1683 km, 47.2° (Epoch: 22 February)

Event Time Altitude Azimuth Distance (km) Brightness Sun altitude
Rises 22:51:09 0° 247° (WSW) 4,756 - -60.6°
Reaches altitude 10° 22:54:15 10° 247° (WSW) 3,752 - -60.8°
Maximum altitude 23:03:43 84° 161° (SSE) 1,544 - -61.3°
Drops below altitude 10° 23:13:00 10° 75° (ENE) 3,682 - -61.7°
Sets 23:16:01 0° 75° (ENE) 4,664 - -61.7°
